TimeEST,TemperatureF,Dew PointF,Humidity,Sea Level PressureIn,VisibilityMPH,Wind Direction,Wind SpeedMPH,Gust SpeedMPH,PrecipitationIn,Events,Conditions,WindDirDegrees,DateUTC
12:53 AM,71.1,69.1,93,29.96,10.0,SW,4.6,-,N/A,,Scattered Clouds,220,2013-02-24 05:53:00
1:53 AM,72.0,70.0,93,29.96,10.0,SW,5.8,-,N/A,,Mostly Cloudy,220,2013-02-24 06:53:00
2:11 AM,71.6,69.8,94,29.95,10.0,SSW,6.9,-,N/A,,Mostly Cloudy,210,2013-02-24 07:11:00
2:53 AM,72.0,71.1,97,29.94,10.0,SW,8.1,-,N/A,,Overcast,220,2013-02-24 07:53:00
3:00 AM,71.6,71.6,100,29.94,10.0,SSW,8.1,-,N/A,,Overcast,210,2013-02-24 08:00:00
3:53 AM,72.0,71.1,97,29.93,10.0,SSW,6.9,-,N/A,,Overcast,210,2013-02-24 08:53:00
4:40 AM,71.6,71.6,100,29.93,10.0,SSW,6.9,-,N/A,,Overcast,210,2013-02-24 09:40:00
4:53 AM,72.0,71.1,97,29.93,10.0,SSW,6.9,-,N/A,,Overcast,210,2013-02-24 09:53:00
5:37 AM,71.6,69.8,94,29.94,10.0,SW,6.9,-,N/A,,Overcast,230,2013-02-24 10:37:00
5:53 AM,72.0,70.0,93,29.95,10.0,SW,5.8,-,N/A,,Overcast,220,2013-02-24 10:53:00
6:16 AM,71.6,69.8,94,29.95,10.0,SSW,5.8,-,N/A,,Mostly Cloudy,200,2013-02-24 11:16:00
6:53 AM,71.1,69.1,93,29.95,10.0,SW,4.6,-,N/A,,Mostly Cloudy,230,2013-02-24 11:53:00
7:53 AM,73.0,70.0,90,29.97,7.0,SW,6.9,-,N/A,,Scattered Clouds,230,2013-02-24 12:53:00
7:59 AM,73.4,71.6,94,29.98,7.0,SW,8.1,-,N/A,,Mostly Cloudy,230,2013-02-24 12:59:00
8:53 AM,73.9,70.0,87,30.00,7.0,WSW,9.2,-,N/A,,Mostly Cloudy,250,2013-02-24 13:53:00
9:08 AM,73.4,69.8,88,30.00,7.0,WSW,11.5,-,N/A,,Mostly Cloudy,240,2013-02-24 14:08:00
9:42 AM,77.0,69.8,78,30.00,10.0,WSW,8.1,-,N/A,,Scattered Clouds,250,2013-02-24 14:42:00
9:53 AM,77.0,70.0,79,30.00,10.0,WSW,10.4,-,N/A,,Scattered Clouds,250,2013-02-24 14:53:00
10:53 AM,81.0,69.1,67,29.99,10.0,WSW,8.1,-,N/A,,Scattered Clouds,240,2013-02-24 15:53:00
11:53 AM,84.0,68.0,58,29.96,10.0,SW,9.2,16.1,N/A,,Scattered Clouds,230,2013-02-24 16:53:00
12:53 PM,84.9,66.0,53,29.94,10.0,SSW,8.1,-,N/A,,Scattered Clouds,210,2013-02-24 17:53:00
1:53 PM,84.9,64.0,49,29.92,10.0,WSW,10.4,-,N/A,,Scattered Clouds,240,2013-02-24 18:53:00
2:53 PM,84.9,62.1,46,29.90,10.0,West,8.1,-,N/A,,Scattered Clouds,260,2013-02-24 19:53:00
3:53 PM,82.9,69.1,63,29.90,10.0,SE,11.5,-,N/A,,Scattered Clouds,140,2013-02-24 20:53:00
4:53 PM,82.0,66.9,60,29.90,10.0,SSE,12.7,-,N/A,,Scattered Clouds,160,2013-02-24 21:53:00
5:53 PM,79.0,68.0,69,29.90,10.0,SSE,10.4,-,N/A,,Scattered Clouds,160,2013-02-24 22:53:00
6:53 PM,78.1,68.0,71,29.92,10.0,Calm,Calm,-,N/A,,Mostly Cloudy,0,2013-02-24 23:53:00
7:53 PM,78.1,70.0,76,29.92,10.0,SSE,6.9,-,N/A,,Mostly Cloudy,160,2013-02-25 00:53:00
8:53 PM,77.0,70.0,79,29.93,10.0,South,8.1,-,N/A,,Mostly Cloudy,180,2013-02-25 01:53:00
9:53 PM,75.9,69.1,79,29.95,10.0,South,5.8,-,N/A,,Mostly Cloudy,190,2013-02-25 02:53:00
10:53 PM,75.0,68.0,79,29.93,10.0,SSW,8.1,-,N/A,,Mostly Cloudy,210,2013-02-25 03:53:00
11:53 PM,73.9,66.9,79,29.90,10.0,SSW,6.9,-,N/A,,Mostly Cloudy,210,2013-02-25 04:53:00